[[{"header":{"parameterUnit":"m.s-1","parameterCategory":1,"la1":30.2991,"la2":30.254,"lo1":-89.0895,"lo2":-89.0444,"dy":0.0017,"dx":0.0017,"nx":28,"ny":28,"refTime":"2024-07-24T03:00:00:Z","depth":0,"parameterNumber":2,"parameterNumberName":"U-component_of_WINDS"},"data":[0,0,0,0,0,0,0,0,0,0,0,0,0,0,0,0,0,0,0,0,0,0,0,0,0,0,0,0,0,0,0,0,0,0,0,0,0,0,0,0,0,0,0,0,0,0,0,0,0,0,0,0,0,0,0,0,0,0,0.1918,0.1918,0,0.1999,0.2,0.2001,0.2056,0.2057,0.2057,0.2058,0.2142,0.2144,0.2146,0,0,0,0,0,0,0,0,0,0,0,0,0,0.181,0.1812,0.1917,0.1919,0.192,0.1999,0.2,0.2001,0.2056,0.2057,0.2057,0.2058,0.2142,0.2144,0.2146,0,0,0,0,0,0,0,0,0,0,0,0,0,0.1871,0.1812,0.1917,0.1957,0.1961,0.1999,0.2,0.2002,0.2056,0.2057,0.2057,0.2058,0.2141,0.2144,0.2146,0.2152,0,0,0.2155,0.2156,0,0,0,0,0,0,0,0,0.1867,0.1875,0.195,0.1954,0.1959,0.2018,0.1993,0.2052,0.2056,0.202,0.2058,0.2058,0.2101,0.2107,0.2121,0.2156,0.216,0.2155,0.2157,0.2158,0.2159,0,0,0,0,0,0,0,0.1863,0.1871,0.195,0.1951,0.1956,0.197,0.198,0.2005,0.2056,0.2023,0.2027,0.2036,0.2103,0.2118,0.2123,0.2161,0.2155,0.2158,0.216,0.2161,0.2205,0.2205,0,0,0,0,0,0,0.1852,0.1868,0.1947,0.1952,0.1914,0.1972,0.1982,0.1999,0.2056,0.2065,0.2036,0.2039,0.2113,0.212,0.2126,0.2137,0.2158,0.2161,0.2163,0.2206,0.2205,0.2204,0,0,0,0,0,0,0.185,0.1859,0.1944,0.1911,0.1923,0.1973,0.1991,0.2,0.2015,0.2065,0.2075,0.2041,0.2114,0.2122,0.2145,0.214,0.2162,0.2165,0.2206,0.2205,0.2205,0.2157,0,0,0,0,0,0,0.1847,0.1858,0.186,0.1911,0.1925,0.1961,0.1991,0.2001,0.2019,0.2024,0.2073,0.2082,0.2115,0.2141,0.2148,0.2145,0.2167,0.2207,0.2206,0.2205,0.216,0.2155,0.2151,0,0,0,0,0,0.1843,0.1844,0.186,0.1869,0.1929,0.1961,0.1969,0.2006,0.2019,0.2022,0.2054,0.208,0.214,0.2143,0.2151,0.2149,0.2207,0.2206,0.2205,0.2161,0.2156,0.2151,0,0,0,0,0,0,0.1792,0.1851,0.187,0.1887,0.1918,0.197,0.1975,0.1999,0.2027,0.203,0.2076,0.2087,0.2105,0.2129,0.2131,0.2157,0.2177,0.2177,0.2141,0.2136,0.2132,0.2125,0.2169,0,0,0,0,0,0.1782,0.1803,0.1854,0.1865,0.1879,0.1924,0.194,0.1966,0.2,0.2013,0.2048,0.208,0.2106,0.2123,0.2149,0.2163,0.2175,0.2166,0.2162,0.2158,0.2158,0.2167,0.2164,0.2201,0.2201,0.2201,0,0,0.1764,0.1799,0.1809,0.1855,0.1883,0.1903,0.1935,0.1956,0.1971,0.2017,0.204,0.2066,0.2106,0.2124,0.2134,0.2145,0.215,0.2157,0.2153,0.2155,0.2165,0.2162,0.2159,0.22,0.22,0.22,0,0,0.174,0.1768,0.178,0.1807,0.1848,0.1877,0.188,0.1928,0.1947,0.1971,0.2006,0.2025,0.2069,0.2096,0.2115,0.2101,0.2126,0.2109,0.2087,0.2095,0.2092,0.209,0.2085,0.2082,0.2109,0.2108,0.2108,0,0.1711,0.1744,0.1783,0.1802,0.1821,0.1863,0.1876,0.19,0.1947,0.1959,0.1971,0.2027,0.2057,0.2081,0.2078,0.2092,0.2097,0.2103,0.2089,0.2087,0.2086,0.2081,0.2079,0.2106,0.2106,0.2107,0.2107,0,0.1706,0.1728,0.1733,0.1777,0.1797,0.1813,0.1855,0.1871,0.1895,0.1924,0.1948,0.1985,0.2019,0.2028,0.2052,0.2056,0.2062,0.2081,0.2101,0.2079,0.2076,0.2074,0.2103,0.2103,0.2104,0.2105,0,0,0.1652,0.1719,0.172,0.174,0.1788,0.1806,0.1823,0.1857,0.187,0.1901,0.1917,0.1953,0.1971,0.1992,0.202,0.2027,0.2014,0.2046,0.2048,0.2038,0.202,0.2005,0.2002,0.2031,0.2031,0.203,0.2017,0,0.1635,0.1668,0.1705,0.1725,0.1746,0.1786,0.1801,0.1832,0.186,0.1881,0.1912,0.1937,0.1959,0.1972,0.1981,0.2013,0.2011,0.2015,0.2046,0.2046,0.2034,0.2001,0.1985,0.197,0.2016,0.2016,0.2016,0,0.162,0.1649,0.1671,0.1717,0.1728,0.174,0.1774,0.1795,0.1831,0.185,0.1874,0.1904,0.1924,0.1942,0.1971,0.1973,0.1988,0.2006,0.2006,0.201,0.2029,0.2003,0.1967,0.1964,0.2014,0.2014,0.2014,0,0.1578,0.1623,0.1642,0.1658,0.1713,0.1721,0.1744,0.1781,0.1799,0.1828,0.184,0.1872,0.189,0.1914,0.1951,0.1961,0.1976,0.1997,0.1992,0.1991,0.1993,0.1992,0.1957,0.2003,0.2003,0.2003,0.2003,0,0.1555,0.1567,0.1623,0.1635,0.165,0.1692,0.1705,0.1732,0.1764,0.1782,0.1819,0.1835,0.1883,0.1905,0.1934,0.1954,0.1961,0.1978,0.1985,0.1974,0.1972,0.1984,0.1986,0.2003,0.2003,0.2003,0.2003,0,0.151,0.1548,0.1572,0.1621,0.1634,0.1642,0.1685,0.1698,0.1728,0.1749,0.1757,0.1803,0.1831,0.187,0.191,0.193,0.1944,0.1957,0.1932,0.1936,0.1929,0.1929,0.19,0.1899,0.1945,0.1945,0.1944,0,0.1492,0.1502,0.1553,0.1567,0.1589,0.1612,0.163,0.1672,0.169,0.1732,0.174,0.177,0.1796,0.1838,0.1876,0.1906,0.1919,0.1907,0.1924,0.1912,0.1919,0.1917,0.1918,0.1903,0.1902,0.1902,0.1901,0,0.1457,0.1475,0.15,0.1532,0.1553,0.158,0.1609,0.1619,0.1667,0.1685,0.1714,0.1734,0.1774,0.1804,0.1839,0.1863,0.189,0.1896,0.1896,0.1884,0.1869,0.1877,0.192,0.1896,0.1897,0.1897,0.1897,0.1897,0.1425,0.1435,0.1473,0.1499,0.1526,0.1552,0.1566,0.1598,0.1622,0.1658,0.1681,0.1708,0.1744,0.1795,0.1817,0.1839,0.1851,0.1851,0.1851,0.1851,0.1846,0.1866,0.1846,0.1846,0.1846,0.1847,0.1847,0,0.139,0.1417,0.1441,0.148,0.1501,0.1525,0.1558,0.1574,0.1597,0.1629,0.1654,0.1686,0.1715,0.1754,0.1786,0.1796,0.1809,0.1803,0.1802,0.1807,0.1835,0.1831,0.1792,0.1792,0.1792,0.1792,0.1792,0.1792,0.1375,0.1394,0.1418,0.145,0.1477,0.1503,0.152,0.1544,0.157,0.1604,0.1628,0.1654,0.1689,0.1723,0.175,0.1761,0.1771,0.1761,0.1775,0.18,0.1805,0.181,0.1807,0.1763,0.1763,0.1746,0.1746,0.1745]},{"header":{"parameterUnit":"m.s-1","parameterCategory":1,"la1":30.2991,"la2":30.254,"lo1":-89.0895,"lo2":-89.0444,"dy":0.0017,"dx":0.0017,"nx":28,"ny":28,"refTime":"2024-07-24T03:00:00:Z","depth":0,"parameterNumber":3,"parameterNumberName":"V-component_of_WINDS"},"data":[0,0,0,0,0,0,0,0,0,0,0,0,0,0,0,0,0,0,0,0,0,0,0,0,0,0,0,0,0,0,0,0,0,0,0,0,0,0,0,0,0,0,0,0,0,0,0,0,0,0,0,0,0,0,0,0,0,0,2.7237,2.7237,0,2.7176,2.7176,2.7175,2.719,2.7192,2.7193,2.7194,2.7124,2.7121,2.7118,0,0,0,0,0,0,0,0,0,0,0,0,0,2.736,2.7358,2.7237,2.7236,2.7236,2.7176,2.7176,2.7175,2.719,2.7192,2.7193,2.7195,2.7125,2.7122,2.7118,0,0,0,0,0,0,0,0,0,0,0,0,0,2.7304,2.7357,2.7237,2.7237,2.7236,2.7177,2.7176,2.7175,2.719,2.7192,2.7194,2.7195,2.7126,2.7122,2.7118,2.7053,0,0,2.7104,2.7102,0,0,0,0,0,0,0,0,2.7307,2.7299,2.7237,2.7236,2.7236,2.7193,2.7193,2.7134,2.7189,2.7207,2.7194,2.7196,2.7145,2.7139,2.7124,2.705,2.7047,2.7104,2.7101,2.7099,2.7098,0,0,0,0,0,0,0,2.7311,2.7302,2.7213,2.7236,2.7235,2.7237,2.7231,2.7182,2.7166,2.7206,2.7207,2.72,2.7145,2.7128,2.7122,2.7046,2.7104,2.71,2.7097,2.7095,2.6916,2.6914,0,0,0,0,0,0,2.7316,2.7305,2.7215,2.7211,2.7277,2.7233,2.7227,2.7205,2.7167,2.7163,2.7198,2.7201,2.7135,2.7127,2.712,2.7042,2.7099,2.7095,2.7092,2.6918,2.6916,2.6914,0,0,0,0,0,0,2.7319,2.7308,2.7217,2.7258,2.7247,2.7229,2.7205,2.7203,2.7186,2.7162,2.7158,2.7184,2.7136,2.7126,2.707,2.704,2.7093,2.7089,2.6921,2.6918,2.6915,2.6885,0,0,0,0,0,0,2.7322,2.7309,2.7286,2.7258,2.7245,2.7171,2.7203,2.72,2.7179,2.7181,2.7147,2.7143,2.7137,2.7077,2.7066,2.7034,2.7085,2.6923,2.6919,2.6916,2.6889,2.6882,2.6875,0,0,0,0,0,2.7327,2.7278,2.7285,2.7274,2.7216,2.7169,2.7161,2.7157,2.7176,2.7152,2.7136,2.7144,2.7045,2.7071,2.7059,2.7025,2.6925,2.6921,2.6916,2.6892,2.6883,2.6876,0,0,0,0,0,0,2.73,2.7275,2.7281,2.7223,2.7198,2.7172,2.7141,2.7147,2.7115,2.7118,2.7111,2.7104,2.7047,2.703,2.706,2.6961,2.6988,2.698,2.6974,2.6965,2.6958,2.6963,2.7081,0,0,0,0,0,2.7289,2.7255,2.7233,2.7184,2.7171,2.7158,2.7138,2.7137,2.711,2.7099,2.7079,2.7051,2.7013,2.6988,2.6952,2.6887,2.6879,2.6858,2.6851,2.6846,2.6839,2.6803,2.6793,2.6898,2.6898,2.6899,0,0,2.7262,2.7244,2.7223,2.7178,2.7159,2.7122,2.7149,2.7109,2.7081,2.7092,2.7038,2.7023,2.6991,2.693,2.6902,2.6915,2.6809,2.684,2.6836,2.6832,2.6797,2.6787,2.6778,2.6895,2.6896,2.6896,0,0,2.7195,2.7179,2.7136,2.7117,2.7089,2.708,2.707,2.7043,2.7034,2.6981,2.6988,2.6954,2.6889,2.6866,2.6846,2.6772,2.6777,2.676,2.6724,2.6689,2.668,2.6673,2.6646,2.6636,2.6754,2.6753,2.6753,0,2.7166,2.7113,2.7112,2.7072,2.7052,2.7063,2.7018,2.6998,2.6959,2.6943,2.6959,2.6879,2.6858,2.6792,2.6774,2.6757,2.6744,2.6763,2.6682,2.6675,2.6668,2.6642,2.6631,2.6751,2.6752,2.6752,2.6752,0,2.7077,2.7041,2.7009,2.6974,2.6949,2.6907,2.6898,2.6873,2.6875,2.6864,2.6809,2.6785,2.6745,2.6729,2.6728,2.6662,2.6671,2.6684,2.6711,2.6656,2.6631,2.6621,2.6749,2.6749,2.675,2.675,0,0,2.6991,2.6957,2.6946,2.693,2.69,2.687,2.6827,2.6791,2.6769,2.6741,2.6704,2.665,2.6663,2.664,2.6637,2.6606,2.6548,2.6623,2.6622,2.6609,2.6473,2.6463,2.6452,2.6553,2.6551,2.6549,2.6476,0,2.6921,2.685,2.6848,2.6781,2.6747,2.6757,2.672,2.6696,2.6685,2.6653,2.664,2.6601,2.6621,2.6607,2.6578,2.6562,2.6521,2.6567,2.6516,2.6514,2.6523,2.6439,2.6428,2.6359,2.6466,2.6465,2.6463,0,2.683,2.6803,2.6733,2.6709,2.6694,2.6661,2.6627,2.6597,2.6569,2.6564,2.6539,2.6541,2.6495,2.6525,2.6461,2.6493,2.6472,2.6461,2.6458,2.6452,2.6485,2.643,2.6338,2.6327,2.6448,2.645,2.6451,0,2.6774,2.6719,2.667,2.6656,2.6627,2.6603,2.6589,2.6564,2.6542,2.6512,2.6497,2.6461,2.644,2.6411,2.6403,2.6425,2.6339,2.6368,2.6331,2.6331,2.6312,2.6313,2.6214,2.63,2.63,2.63,2.63,0,2.6695,2.6652,2.6645,2.6614,2.6566,2.6564,2.6515,2.6503,2.6481,2.6447,2.6452,2.642,2.6411,2.6376,2.6369,2.6317,2.6308,2.6301,2.6299,2.63,2.6301,2.6285,2.6289,2.6297,2.6298,2.6299,2.6299,0,2.6623,2.6617,2.6564,2.6542,2.6535,2.65,2.6479,2.6449,2.644,2.6397,2.6387,2.6371,2.6331,2.632,2.6271,2.6266,2.6205,2.6208,2.6215,2.6214,2.6179,2.6182,2.6066,2.605,2.6147,2.6146,2.6145,0,2.6573,2.6541,2.6515,2.6495,2.6481,2.6446,2.6425,2.6421,2.6398,2.6365,2.6339,2.63,2.6268,2.6203,2.6186,2.6148,2.615,2.6112,2.6144,2.6146,2.6148,2.615,2.6146,2.6105,2.6104,2.6103,2.6103,0,2.6485,2.6484,2.6454,2.6423,2.6397,2.6372,2.6347,2.6329,2.6322,2.6295,2.6255,2.6231,2.6182,2.6143,2.6105,2.6089,2.6093,2.6093,2.6083,2.6082,2.6088,2.6084,2.6197,2.6095,2.6096,2.6097,2.6097,2.6097,2.6422,2.6394,2.6372,2.6338,2.632,2.6297,2.6268,2.6256,2.6224,2.6186,2.6185,2.6142,2.6115,2.6066,2.6047,2.6012,2.6023,2.6007,2.6003,2.5999,2.5996,2.6094,2.6005,2.6005,2.6005,2.6005,2.6005,0,2.6334,2.6321,2.629,2.6257,2.6229,2.624,2.6213,2.6189,2.6152,2.6128,2.6098,2.6052,2.6014,2.5995,2.5957,2.5932,2.5933,2.5922,2.5923,2.5919,2.5989,2.6002,2.5922,2.5922,2.5922,2.5922,2.5922,2.5922,2.6284,2.6237,2.6233,2.6176,2.6163,2.6123,2.6106,2.6085,2.6066,2.6015,2.5985,2.5974,2.5951,2.5912,2.5877,2.5872,2.5857,2.5844,2.5841,2.5906,2.5914,2.5922,2.5934,2.5841,2.5841,2.5774,2.5773,2.5773]}]]